Weather History for KCRP - December, 2012

Change the Weather History Date:

Sunday, December 9, 2012

  Actual Average Record
Temperature  
Mean Temperature 77 °F 59 °F  
Max Temperature 84 °F 69 °F 87 °F (2004)
Min Temperature 70 °F 50 °F 29 °F (1978)
Degree Days  
Heating Degree Days 0 7  
Month to date heating degree days 2 59  
Since 1 July heating degree days 41 160  
Cooling Degree Days 12 2  
Month to date cooling degree days 82 18  
Year to date cooling degree days 4453 3493  
Growing Degree Days 27 (Base 50)    
Moisture  
Dew Point 69 °F    
Average Humidity 74    
Maximum Humidity 90    
Minimum Humidity 58    
Precipitation  
Precipitation 0.00 in 0.06 in 1.06 in (1949)
Month to date precipitation 0.01 0.47  
Year to date precipitation 18.80 30.40  
Snow  
Snow 0.00 in - - ()
Month to date snowfall 0.0  
Since 1 July snowfall 0.0  
Snow Depth 0.00 in    
Sea Level Pressure  
Sea Level Pressure 29.85 in    
Wind  
Wind Speed 12 mph (SSE)    
Max Wind Speed 25 mph    
Max Gust Speed 30 mph    
Visibility 8 miles    
Events      
T = Trace of Precipitation, MM = Missing Value Source: NWS Daily Summary

Daily Weather History Graph

Daily Weather History Graph

Search for Another Location

Airport or City:

Trip Planner

Search our weather history database for the weather conditions in past years. The results will help you decide how hot, cold, wet, or windy it might be!

Date:

Astronomy

Dec. 09, 2012 Rise Set
Actual Time 7:09 AM CST 5:35 PM CST
Civil Twilight 6:44 AM CST 6:01 PM CST
Nautical Twilight 6:15 AM CST 6:30 PM CST
Astronomical Twilight 5:46 AM CST 6:58 PM CST
Moon 2:59 AM CST (12/9) 2:30 PM CST (12/9)
Length of Visible Light 11h 16m
Length of Day
10h 25m
Waning Crescent, 18% of the Moon is Illuminated
Dec 9
Waning Crescent
Dec 13
New
Dec 19
First Quarter
Dec 28
Full
Jan 4
Last Quarter

Hourly Weather History & Observations

Time (CST) Temp. Heat Index Dew Point Humidity Pressure Visibility Wind Dir Wind Speed Gust Speed Precip Events Conditions
12:51 AM 71.1 °F - 66.9 °F 87% 29.84 in 10.0 mi SSE 9.2 mph - N/A   Clear
1:51 AM 71.1 °F - 66.9 °F 87% 29.83 in 10.0 mi SSE 9.2 mph - N/A   Clear
2:51 AM 70.0 °F - 66.9 °F 90% 29.82 in 10.0 mi SSE 10.4 mph - N/A   Clear
3:51 AM 70.0 °F - 66.9 °F 90% 29.82 in 10.0 mi SSE 10.4 mph - N/A   Clear
4:51 AM 71.6 °F - 66.2 °F 83% 29.83 in 9.0 mi SSE 5.8 mph - N/A   Partly Cloudy
5:51 AM 70.0 °F - 66.9 °F 90% 29.85 in 7.0 mi SSE 3.5 mph - N/A   Mostly Cloudy
5:57 AM 69.8 °F - 66.2 °F 88% 29.85 in 6.0 mi Calm Calm - N/A   Mostly Cloudy
6:51 AM 72.0 °F - 68.0 °F 87% 29.87 in 5.0 mi SE 4.6 mph - N/A   Overcast
7:04 AM 71.6 °F - 69.8 °F 94% 29.87 in 5.0 mi SE 6.9 mph - N/A   Mostly Cloudy
7:51 AM 73.0 °F - 70.0 °F 90% 29.87 in 4.0 mi SE 5.8 mph - N/A   Mostly Cloudy
8:20 AM 73.4 °F - 69.8 °F 88% 29.89 in 4.0 mi SSE 5.8 mph - N/A   Mostly Cloudy
8:40 AM 73.4 °F - 69.8 °F 88% 29.89 in 4.0 mi SSE 8.1 mph - N/A   Mostly Cloudy
8:51 AM 73.9 °F - 70.0 °F 87% 29.89 in 4.0 mi SSE 9.2 mph - N/A   Mostly Cloudy
9:33 AM 75.2 °F - 71.6 °F 89% 29.91 in 5.0 mi South 9.2 mph - N/A   Haze
9:43 AM 75.2 °F - 71.6 °F 89% 29.91 in 5.0 mi South 10.4 mph - N/A   Haze
9:51 AM 77.0 °F - 72.0 °F 84% 29.91 in 5.0 mi South 11.5 mph - N/A   Haze
10:23 AM 78.8 °F - 71.6 °F 78% 29.91 in 6.0 mi South 11.5 mph - N/A   Haze
10:25 AM 78.8 °F - 71.6 °F 78% 29.91 in 6.0 mi South 11.5 mph - N/A   Haze
10:28 AM 78.8 °F - 71.6 °F 78% 29.91 in 6.0 mi South 13.8 mph - N/A   Haze
10:45 AM 80.6 °F 84.6 °F 71.6 °F 74% 29.91 in 7.0 mi South 12.7 mph - N/A   Mostly Cloudy
10:51 AM 79.0 °F - 71.1 °F 77% 29.91 in 7.0 mi South 13.8 mph - N/A   Mostly Cloudy
11:41 AM 80.6 °F 83.9 °F 69.8 °F 70% 29.88 in 9.0 mi South 12.7 mph - N/A   Mostly Cloudy
11:51 AM 80.1 °F 82.9 °F 69.1 °F 69% 29.87 in 9.0 mi South 15.0 mph - N/A   Mostly Cloudy
12:51 PM 82.0 °F 85.5 °F 69.1 °F 65% 29.83 in 8.0 mi SSE 15.0 mph - N/A   Mostly Cloudy
1:51 PM 82.4 °F 86.3 °F 69.8 °F 66% 29.80 in 10.0 mi SSE 17.3 mph - N/A   Scattered Clouds
2:51 PM 82.9 °F 85.4 °F 66.9 °F 58% 29.79 in 10.0 mi South 17.3 mph 25.3 mph N/A   Scattered Clouds
3:51 PM 82.9 °F 85.4 °F 66.9 °F 58% 29.77 in 10.0 mi SSE 23.0 mph - N/A   Scattered Clouds
4:51 PM 79.0 °F - 68.0 °F 69% 29.77 in 10.0 mi SSE 21.9 mph - N/A   Partly Cloudy
5:51 PM 78.1 °F - 68.0 °F 71% 29.77 in 10.0 mi SSE 15.0 mph - N/A   Clear
6:51 PM 77.0 °F - 68.0 °F 74% 29.79 in 10.0 mi SSE 13.8 mph - N/A   Partly Cloudy
7:51 PM 75.9 °F - 68.0 °F 76% 29.79 in 10.0 mi SSE 15.0 mph - N/A   Partly Cloudy
8:51 PM 75.9 °F - 69.1 °F 79% 29.80 in 10.0 mi SSE 16.1 mph - N/A   Partly Cloudy
9:51 PM 75.9 °F - 69.1 °F 79% 29.82 in 10.0 mi SSE 12.7 mph - N/A   Mostly Cloudy
10:51 PM 75.0 °F - 70.0 °F 84% 29.82 in 10.0 mi SSE 12.7 mph - N/A   Partly Cloudy
11:51 PM 73.0 °F - 69.1 °F 87% 29.81 in 9.0 mi SSE 9.2 mph - N/A   Clear